Regional Weather Roundup
Issued by NWS Binghamton, NY

Home | Current Version | Previous Version | Text Only | Print | Product List | Glossary On
Versions: 1 2 3 4 5 6 7 8 9 10 11 12 13 14 15 16 17 18 19 20 21 22 23 24 25 26 27 28 29 30 31 32 33 34 35 36 37 38 39 40 41 42 43 44 45 46 47 48 49 50
000
ASUS41 KBGM 280010
RWRBGM
RWRBGM
BINGHAMTON REGIONAL WEATHER ROUNDUP
NATIONAL WEATHER SERVICE BINGHAMTON NY
800 PM EDT FRI MAR 27 2015

Note: "fair" indicates few or no clouds below 12,000 feet with no
significant weather and/or obstructions to visibility.

* = Station(s) that does not report precipitation, such as rain,
snow, etc, also no thunder or fog.

!NYZ009-015>018-022>025-036-037-044>046-055>057-062-280100
...CENTRAL NEW YORK...

CITY           SKY/WX    TMP DP  RH WIND       PRES   REMARKS
BINGHAMTON     LGT SNOW  28  24  85 N13       29.79R FOG     WCI  17
CORTLAND       FLURRIES  30  25  80 N5        29.85S WCI  25
DANSVILLE      LGT SNOW  27  22  81 NW10      29.90R WCI  17
ELMIRA         LGT SNOW  31  27  85 NE8       29.84R FOG     WCI  23
ITHACA         LGT SNOW  28  24  85 N7        29.86R FOG     WCI  21
MONTICELLO     PTCLDY    32  23  69 N8        29.76R WCI  25
NORWICH        CLOUDY    30  21  69 N7G18       N/A  WCI  23
ONEONTA        CLOUDY    28  21  74 CALM      29.77R
PENN YAN       FLURRIES  29  23  78 NW6       29.88R WCI  23
ROME           CLOUDY    31  24  75 W12       29.87R WCI  22
SIDNEY         LGT SNOW  32  28  86 N9        29.82R WCI  24
SYRACUSE       FLURRIES  28  23  81 N8        29.90R WCI  20
$$

!PAZ038>040-043-044-047-048-072-280100
...NORTHEAST PENNSYLVANIA...

CITY           SKY/WX    TMP DP  RH WIND       PRES   REMARKS
HAZLETON       CLOUDY    36  25  64 N7        29.78R WCI  30
SCRANTON       CLOUDY    37  24  59 N8        29.78R WCI  31
TOWANDA*       CLOUDY    34  27  75 NE7       29.84R WCI  28
$$
&&
KEY
WCI = WIND CHILL INDEX
VSB = VISIBILITY
HX  = HEAT INDEX
$$


USA.gov is the U.S. government's official web portal to all federal, state and local government web resources and services.